Location: Puketoi
(40.5833°S, 176.0167°E)
Time: 15:37:00
(UTC+00:00)

Cosmos 1461 - Pass Details

Date: 08 February 2023
Orbit: 492 x 644 km, 65.0° (Epoch: 22 March)

Event Time Altitude Azimuth Distance (km) Brightness Sun altitude
Exits shadow 16:54:27 - 338° (NNW) 2,600 5.8 -7.5°
Reaches altitude 10° 16:56:12 10° 340° (NNW) 1,895 5.1 -7.2°
Maximum altitude 17:00:25 64° 61° (ENE) 628 3.3 -6.5°
Drops below altitude 10° 17:04:28 10° 142° (SE) 1,824 6.7 -5.8°
Sets 17:06:39 0° 145° (SE) 2,699 7.5 -5.4°
